User: anonymous   Login
Location: Franzen
(48.6167°N, 15.3833°E)
Time: 04:35:29
(UTC+00:00)
Language:

Transit 4A - Orbit

View from above orbital plane
View from above orbital plane
View from above satellite
View from above satellite

Ground track
Ground track

The orbit data is extracted from the following two-line orbital elements,

1 00116U 61015A   21217.60463365 -.00000059  00000-0  13469-4 0  9999
2 00116  66.8092 275.7594 0068653  77.6601 283.2153 13.91793962 49439
Epoch (UTC): 05 August 2021 14:30:40
Eccentricity: 0.0068653
inclination: 66.8092°
perigee height: 872 km
apogee height: 972 km
right ascension of ascending node: 275.7594°
argument of perigee: 77.6601°
revolutions per day: 13.91793962
mean anomaly at epoch: 283.2153°
orbit number at epoch: 4943

The dashed part of the orbit path shows where the satellite is in the earth's shadow,  

DLR